Tracking 18843 objects as of 20-November-2017
HD Live streaming from Space Station
objects crossing your sky now

CS 3B

Track CS 3B now!
CS 3B is classified as:


NORAD ID: 19508
Int'l Code: 1988-086A
Perigee: 36,048.4 km
Apogee: 36,130.8 km
Inclination: 14.8 °
Period: 1,451.2 minutes
Semi major axis: 42460 km
RCS: 6.3096 m2 (large)
Launch date: September 16, 1988
Source: Japan (JPN)
Launch site: TANEGASHIMA SPACE CENTER (TNSTA)
aabbcc
Your satellite tracking list
Your tracking list is empty




NASA's NSSDC Master Catalog

Two Line Element Set (TLE):
1 19508U 88086A   17323.38946274 -.00000043 +00000-0 +00000-0 0  9990
2 19508 014.7843 019.9870 0009704 257.4255 119.2319 00.99225652106188
Source of the keplerian elements: AFSPC